Regional Weather Roundup
Issued by NWS

Home | Current Version | Previous Version | Text Only | Print | Product List | Glossary On
Versions: 1 2 3 4 5 6 7 8 9 10 11 12 13 14 15 16 17 18 19 20 21 22 23 24 25 26 27 28 29 30 31 32 33 34 35 36 37 38 39 40 41 42 43 44 45 46 47 48 49 50
441
ASUS45 KABQ 180510
RWRNM
NEW MEXICO REGIONAL WEATHER ROUNDUP
NATIONAL WEATHER SERVICE ALBUQUERQUE NM
1000 PM MST FRI NOV 17 2017

NOTE: "FAIR" MEANS FEW OR NO CLOUDS BELOW 12,000 FEET AGL WITH NO
       SIGNIFICANT WEATHER OR OBSTRUCTIONS TO VISION.

      THIS PRODUCT IS RELEASED AS TWO VERSIONS.  ONE VERSION NEAR
      THE TOP OF THE HOUR CONTAINING PRELIMINARY DATA FROM ALBUQUERQUE
      AND OTHER STATIONS.  A FINAL VERSION WITH ADDITIONAL DATA IS
      ISSUED ABOUT 10 MINUTES AFTER THE HOUR.

NMZ501-503-504-510>518-180600-
NORTHWEST PLATEAU/NORTHCENTRAL MOUNTAINS

CITY           SKY/WX    TMP DP  RH WIND       PRES   REMARKS
FARMINGTON     MOCLDY    43  32  65 NW25G39   29.96R
LOS ALAMOS     FAIR      48  31  51 W22G41    29.96S
SANTA FE       CLOUDY    52  38  58 W25G36    29.95F
TAOS           MOCLDY    47  34  60 W23G31    29.92F
ANGEL FIRE     CLOUDY    41  32  69 SW22G36   29.93F

$$
NMZ402-403-502-505>509-180600-
WESTCENTRAL MOUNTAINS/SOUTHWEST MOUNTAINS

CITY           SKY/WX    TMP DP  RH WIND       PRES   REMARKS
GALLUP         FAIR      45  37  73 SW17      30.08R
GRANTS         FAIR      49  35  57 W32G40    30.06R
SILVER CITY    FAIR      53  25  33 NW10      30.09R

$$
NMZ407-409-411-412-180600-
SOUTHERN DESERTS

CITY           SKY/WX    TMP DP  RH WIND       PRES   REMARKS
DEMING         FAIR      54  23  30 W7        30.05S
LAS CRUCES     FAIR      60  21  21 W7        30.05R
HOLLOMAN AFB   FAIR      69  20  15 S6        29.99F
ALAMOGORDO     FAIR      68  21  17 S10       30.00S
T OR C         FAIR      64  18  17 SW7       30.00R

$$
NMZ519>523-180600-
CENTRAL VALLEYS/CENTRAL HIGHLANDS

CITY           SKY/WX    TMP DP  RH WIND       PRES   REMARKS
ALBUQUERQUE    MOCLDY    56  38  50 SW16      29.98F
DOUBLE EAGLE   PTCLDY    52  37  58 SW18G25   30.00R
MORIARTY ARPT  FAIR      55  38  54 W25G44    29.94F
CLINES CORNERS FAIR      48  35  60 W24G36    29.98F
BELEN          FAIR      59  32  36 W17G26    29.99S
SOCORRO        MOCLDY    60  24  24 CALM      29.98S

$$
NMZ524>526-539-540-180600-
SOUTHCENTRAL MOUNTAINS

CITY           SKY/WX    TMP DP  RH WIND       PRES   REMARKS
RUIDOSO        FAIR      57  19  23 W17       30.05S

$$
NMZ527>531-180600-
NORTHEAST HIGHLANDS/NORTHEAST PLAINS

CITY           SKY/WX    TMP DP  RH WIND       PRES   REMARKS
LAS VEGAS      FAIR      49  34  56 W30G36    29.87S
RATON          FAIR      53  25  33 W24G30    29.75S
CLAYTON        FAIR      52  37  56 SW15G24   29.70S

$$
NMZ532>537-180600-
EASTCENTRAL PLAINS

CITY           SKY/WX    TMP DP  RH WIND       PRES   REMARKS
SANTA ROSA     FAIR      61  37  41 W29G41    29.83S
TUCUMCARI      FAIR      66  39  37 W31       29.75S
CANNON AFB     FAIR      64  37  36 W20G29    29.83F
CLOVIS AIRPORT NOT AVBL

$$
NMZ028-029-538-180600-
SOUTHEAST PLAINS

CITY           SKY/WX    TMP DP  RH WIND       PRES   REMARKS
ROSWELL        FAIR      59  25  27 SW12      29.84F
ARTESIA        FAIR      66  27  22 SW12      29.86F
CARLSBAD       FAIR      65  31  28 S12       29.86F
HOBBS          FAIR      64  28  25 W13       29.87S


$$




USA.gov is the U.S. government's official web portal to all federal, state and local government web resources and services.